Regional Weather Roundup
Issued by NWS

Home | Current Version | Previous Version | Text Only | Print | Product List | Glossary Off
Versions: 1 2 3 4 5 6 7 8 9 10 11 12 13 14 15 16 17 18 19 20 21 22 23 24 25 26 27 28 29 30 31 32 33 34 35 36 37 38 39 40 41 42 43 44 45 46 47 48 49 50

000
ASUS43 KIND 281409
RWRIN

WEATHER ROUNDUP FOR INDIANA
NATIONAL WEATHER SERVICE INDIANAPOLIS IN
1000 AM EDT SUN AUG 28 2016

NOTE: "FAIR" INDICATES FEW OR NO CLOUDS BELOW 12,000 FEET WITH NO
SIGNIFICANT WEATHER AND/OR OBSTRUCTIONS TO VISIBILITY.

* - STATION DOES NOT REPORT WEATHER SUCH AS PRECIPITATION OR FOG.

+ - STATION NOT QUALITY CONTROLLED BY THE NATIONAL WEATHER SERVICE.
    USE DATA WITH CAUTION...ESPECIALLY DEWPOINT AND RELATIVE
    HUMIDITY OBSERVATIONS.

INZ001>003-010>013-019-020-281500-
NORTHWEST INDIANA

CITY           SKY/WX    TMP DP  RH WIND       PRES   REMARKS
GARY /AIRPORT/ MOSUNNY   79  73  83 CALM      30.19S
KNOX *+        CLOUDY    73  55  53 CALM      30.20R
LA PORTE +     MOSUNNY  N/A N/A N/A CALM      30.21R
MICHIGAN CITY+ MOSUNNY   75  75 100 CALM      30.20R
MONTICELLO +   MOSUNNY   74  69  83 CALM      30.19F
RENSSELAER +   CLOUDY    77  73  88 CALM      30.20S
VALPARAISO     PTSUNNY   76  71  85 CALM      30.20S

$$

LMZ046-743>745-281500-
SOUTHERN LAKE MICHIGAN

STATION/POSITION TIME  TEMP    WIND        PRES    WAVE
                       AIR SEA DIR/SP/G            HT
                 (UTC) (F)     (DEG/KT/KT) (MB)    (FT)
BURNS HARBOR     1300   73      CALM  /  1 1022.4R
MICHIGAN CITY    1300   74     210/  2/  2   N/A
5NW MICH CITY    1400   76 76   40/  8/ 10   N/A     1

$$

INZ004-005-014>016-021>024-281500-
NORTH CENTRAL INDIANA

CITY           SKY/WX    TMP DP  RH WIND       PRES   REMARKS
ELKHART        CLOUDY    73  72  94 CALM      30.20S
GOSHEN         CLOUDY    76  71  85 NW3       30.20R
LOGANSPORT +   SUNNY     77  73  88 CALM      30.21F
PERU/GRISSOM   SUNNY     79  75  86 W1        30.20S
ROCHESTER +    MOSUNNY   81  75  83 CALM      30.20S
SOUTH BEND     PTSUNNY   76  73  91 N5        30.20S
WARSAW +       CLOUDY    77  75  94 CALM      30.21R

$$

INZ006>009-017-018-025>027-281500-
NORTHEAST INDIANA

CITY           SKY/WX    TMP DP  RH WIND       PRES   REMARKS
ANGOLA *+      MOSUNNY   79  75  89 NW3       30.20F
AUBURN +       SUNNY     79  70  73 W3        30.21F
FORT WAYNE     MOSUNNY   78  73  84 S6        30.22R
HUNTINGTON +   SUNNY     75  74  96 S5        30.21S

$$

INZ028-029-035-036-043>045-051>053-281500-
WEST CENTRAL INDIANA

CITY           SKY/WX    TMP DP  RH WIND       PRES   REMARKS
CRAWFORDSVL +  SUNNY     77  77 100 CALM      30.21R
GREENCASTLE +  SUNNY     79  77  94 CALM      30.22R
LAFAYETTE      MOSUNNY   78  75  90 CALM      30.19S
TERRE HAUTE    SUNNY     81  75  82 N3        30.20R

$$

INZ030>032-037>040-046>048-054>057-064-065-281500-
CENTRAL INDIANA

CITY           SKY/WX    TMP DP  RH WIND       PRES   REMARKS
COLUMBUS       MOSUNNY   77  75  94 CALM      30.21
INDIANAPOLIS   MOSUNNY   79  73  82 CALM      30.21R
-EAGLE CREEK   SUNNY     80  73  79 CALM      30.21R
KOKOMO *+      SUNNY     79  75  89 W3        30.21S
MARION +       MOSUNNY   77  73  90 CALM      30.23S FOG
MT COMFORT *+  SUNNY     77  73  88 CALM      30.22S
SHELBYVILLE    CLOUDY    79  73  82 CALM      30.21R
ZIONSVILLE +   SUNNY     76  74  92 CALM      30.23S

$$

INZ033-034-041-042-049-050-058-059-281500-
EAST CENTRAL INDIANA

CITY           SKY/WX    TMP DP  RH WIND       PRES   REMARKS
MUNCIE         MOSUNNY   78  73  84 CALM      30.23R

$$

INZ060-061-067>069-081>083-085>088-281500-
SOUTHWEST INDIANA

CITY           SKY/WX    TMP DP  RH WIND       PRES   REMARKS
EVANSVILLE     SUNNY     81  76  84 VRB3      30.18R
HUNTINGBURG *+ SUNNY     81  72  74 E3        30.19R
WASHINGTON +   SUNNY     81  76  85 MISG      30.18S

$$

INZ062-063-066-070>080-084-089>092-281500-
SOUTH CENTRAL AND SOUTHEAST INDIANA

CITY           SKY/WX    TMP DP  RH WIND       PRES   REMARKS
BLOOMINGTON    SUNNY     81  73  76 CALM      30.20S
MADISON *+     SUNNY     81  72  74 N5        30.23R

$$





USA.gov is the U.S. government's official web portal to all federal, state and local government web resources and services.